COSMOS 1275 DEB, 13483

Orbit data source: Space-Track

COSMOS 1275 DEB, 13483 is space debris in LEO originally from a launch on Thu, 04 Jun 1981 UTC launched from the Plesetsk Missile And Space Complex (PKMTR). Debris objects in space refer to the collection of defunct objects orbiting the Earth. Examples of debris include non-operational satellites, rocket bodies, and fragments generated from explosions, collisions, or faulty payload assembly.

Loading next visibility...
Identifier
13483, 1981-053GD
Orbit
LEO
Country
Flag of CISCIS
Related business
Manufacturer
Unknown
Mission
Spacecraft
Bus & Motor
Unknown
Mass
Unknown
Launch date (UTC)
1981-06-04 (44 years ago)
Launch vehicle
Unknown
Launch site
Plesetsk Missile And Space Complex (PKMTR)
Object type
Payload
Rocket body
Debris
Shape & HBR
Unknown shape, 0.1 m
Radar Cross Section
Small (<0.1 m²)

Expand to show TLE details & history
Last TLE update: 11 hours ago

TLE from 11 hours ago
0 COSMOS 1275 DEB
1 13483U 81053GD  25286.55280663  .00003639  00000-0  16608-2 0  9998
2 13483  82.9193 284.0489 0011431 113.1760  33.2788 14.21311649212353
Epoch: 2025-10-13T13:16Z
TLE epoch observation values (Epoch: 2025-10-13T13:16:02.492Z)
Latitude
33.24847°
Longitude
-121.9616°
Altitude
818.405 km
Speed
7.451 km/s
True Right ascension
06h 37m 36s
True Declination
33° 05' 32"
Sunlit
Object was in daylight at epoch
Visualization orbit readout
Latitude
Unknown
Longitude
Unknown
Altitude
Unknown
Speed
Unknown
Apparent Right ascension
Unknown
Apparent Declination
Unknown
Sunlit
N/A
Visualization observer readout
Local Sidereal Time
18:37:53
Azimuth
Unknown
Elevation
Unknown
Doppler factor
Unknown
Orbital elements
Apogee altitude
826.232 km
Perigee altitude
809.78 km
Semi-major axis
7,196.143 km
Eccentricity
0.00114
Inclination
82.9193°
RAAN
284.0489°
Arg. of periapsis
113.176°
True anomaly
33.35076°
Mean anomaly
33.2788°
Eccentric anomaly
33.31477°
Mean motion
3.55544 °/min
Orbital period
101.25 mins
BSTAR
0.0016608
Loading maneuver chart data...
Computing Atmospheric mass density...
Loading historical data...
Loading historical data...
Loading historical data...
Loading historical data...
Loading historical data...
Loading historical data...
Loading historical data...

Documentation

Showing up to 5 results
|